MPEC 2007-S38 : 2007 SV2

The following Minor Planet Electronic Circular may be linked-to from your own Web pages, but must not otherwise be redistributed electronically.


Read MPEC 2007-S37 Read MPEC 2007-S39


M.P.E.C. 2007-S38                                Issued 2007 Sept. 21, 17:08 UT

     The Minor Planet Electronic Circulars contain information on unusual
         minor planets and routine data on comets.  They are published
   on behalf of Commission 20 of the International Astronomical Union by the
          Minor Planet Center, Smithsonian Astrophysical Observatory,
                          Cambridge, MA 02138, U.S.A.

             Prepared using the Tamkin Foundation Computer Network

                              MPC@CFA.HARVARD.EDU
          URL http://www.cfa.harvard.edu/iau/mpc.html  ISSN 1523-6714

                                   2007 SV2

Observations:
     K07S02V* C2007 09 20.24116 22 17 23.64 +02 23 07.6          20.2 V ES038G96
     K07S02V  C2007 09 20.24558 22 17 22.99 +02 23 09.4          20.1 V ES038G96
     K07S02V  C2007 09 20.25002 22 17 22.41 +02 23 11.7          20.2 V ES038G96
     K07S02V  C2007 09 20.25446 22 17 21.84 +02 23 13.5          20.9 V ES038G96
     K07S02V VC2007 09 20.90560 22 15 59.44 +02 27 58.7          20.2 R ES038204
     K07S02V  C2007 09 20.90855 22 15 59.07 +02 27 58.6                 ES038024
     K07S02V  C2007 09 20.92747 22 15 56.53 +02 28 07.2                 ES038024
     K07S02V  C2007 09 20.94128 22 15 54.65 +02 28 13.0                 ES038024
     K07S02V VC2007 09 20.95718 22 15 52.61 +02 28 21.4                 ES038204
     K07S02V HC2007 09 21.30983 22 15 07.66 +02 31 03.4          20.6 V ES038691
     K07S02V HC2007 09 21.31466 22 15 07.04 +02 31 04.9          20.4 V ES038691
     K07S02V HC2007 09 21.31938 22 15 06.46 +02 31 06.5          20.5 V ES038691

Observer details:
024 Heidelberg-Konigstuhl.  Observer F. Hormuth.  0.70-m reflector + CCD.
204 Schiaparelli Observatory.  Observer L. Buzzi.  0.60-m f/4.64 reflector
    + CCD.
691 Steward Observatory, Kitt Peak.  Observer R. S. McMillan.  0.9-m f/3
    reflector + CCD.
G96 Mt. Lemmon Survey.  Observer R. A. Kowalski.  Measurers E. C. Beshore,
    A. Boattini, G. J. Garradd, A. R. Gibbs, A. D. Grauer, R. E. Hill,
    R. A. Kowalski, S. M. Larson, R. H. McNaught.  1.5-m reflector + CCD.

Orbital elements:
2007 SV2                                                 Earth MOID = 0.1020 AU
Epoch 2007 Oct. 27.0 TT = JDT 2454400.5                 MPC
M 341.46150              (2000.0)            P               Q
n   0.37498079     Peri.  110.17516     +0.28619606     -0.95513022
a   1.9045689      Node   322.92237     +0.82508934     +0.28613721
e   0.4749260      Incl.    7.26834     +0.48715438     +0.07649679
P   2.63           H   20.8           G   0.15           U   9
Residuals in seconds of arc
070920 G96  0.4+  0.0     070920 204  0.0   0.2+    070920 204  0.6+  0.0
070920 G96  0.4-  0.1-    070920 024  0.3+  0.2-    070921 691  0.5-  0.6+
070920 G96  0.2-  0.2+    070920 024  0.1-  0.0     070921 691  0.1-  0.0
070920 G96  0.2+  0.0     070920 024  0.8-  0.4-    070921 691  0.6+  0.5-

Ephemeris:
2007 SV2                 a,e,i = 1.90, 0.47, 7                   q = 1.0000
Date    TT    R. A. (2000) Decl.     Delta      r     Elong.  Phase     V
2007 09 17    22 24.22   +01 59.6    0.411    1.400   161.3    13.3    20.4
2007 09 27    22 03.30   +03 14.4    0.375    1.334   147.7    23.7    20.4
2007 10 07    21 44.64   +04 36.0    0.351    1.270   134.2    34.4    20.5
2007 10 17    21 31.14   +06 10.4    0.336    1.208   121.9    44.5    20.5
2007 10 27    21 24.23   +08 06.6    0.322    1.151   111.4    53.5    20.6
2007 11 06    21 23.89   +10 32.5    0.307    1.100   102.7    61.5    20.6
2007 11 16    21 29.78   +13 37.5    0.288    1.058    95.9    68.4    20.6
2007 11 26    21 41.68   +17 34.1    0.263    1.026    91.0    74.1    20.6
2007 12 06    22 00.29   +22 36.3    0.235    1.006    88.3    78.2    20.4
2007 12 16    22 28.99   +29 07.2    0.204    1.000    88.6    79.7    20.1
2007 12 26    23 16.51   +37 26.3    0.174    1.008    93.1    77.0    19.7
2008 01 05    00 42.84   +46 24.1    0.152    1.029   103.4    68.4    19.2
2008 01 15    03 02.49   +49 52.5    0.148    1.062   118.7    54.3    18.8
2008 01 25    05 11.50   +43 10.9    0.169    1.106   132.8    40.8    18.8
2008 02 04    06 26.55   +33 38.1    0.213    1.157   140.1    33.2    19.2
2008 02 14    07 09.98   +26 09.5    0.277    1.215   141.0    30.8    19.8
2008 02 24    07 39.25   +20 58.0    0.355    1.277   138.4    30.9    20.4
2008 03 05    08 01.97   +17 20.6    0.446    1.342   134.3    32.0    21.0
2008 03 15    08 21.64   +14 41.2    0.549    1.408   129.4    33.1    21.6

Timothy B. Spahr             (C) Copyright 2007 MPC           M.P.E.C. 2007-S38

Read MPEC 2007-S37 Read MPEC 2007-S39


Our Web policy. Index to the CBAT/MPC/ICQ pages.

MPC

Valid HTML 4.01!